Location: Newark
(47.5000°N, 4.6167°E)
Time: 00:22:42
(UTC+00:00)

ISS - Pass Details

Date: 18 May 2021
Orbit: 417 x 422 km, 51.6° (Epoch: 14 June)

Event Time Altitude Azimuth Distance (km) Brightness Sun altitude
Rises 20:51:18 0° 256° (WSW) 2,359 0.4 -13.1°
Reaches altitude 10° 20:53:24 10° 261° (W) 1,498 -0.5 -13.3°
Maximum altitude 20:56:44 60° 342° (NNW) 485 -3.2 -13.6°
Drops below altitude 10° 21:00:05 10° 63° (ENE) 1,506 -1.1 -14.0°
Sets 21:02:13 0° 68° (ENE) 2,372 -0.1 -14.2°
